Regional Weather Roundup
Issued by NWS

Home | Current Version | Previous Version | Graphics & Text | Print | Product List | Glossary On
Versions: 1 2 3 4 5 6 7 8 9 10 11 12 13 14 15 16 17 18 19 20 21 22 23 24 25 26 27 28 29 30 31 32 33 34 35 36 37 38 39 40 41 42 43 44 45 46 47 48 49 50
000
ASUS43 KLOT 221910
RWRIL

ILLINOIS REGIONAL WEATHER ROUNDUP
NATIONAL WEATHER SERVICE CHICAGO/ROMEOVILLE IL
200 PM CDT WED OCT 22 2014

NOTE: "FAIR" INDICATES FEW OR NO CLOUDS BELOW 12,000 FEET WITH NO
SIGNIFICANT WEATHER AND/OR OBSTRUCTIONS TO VISIBILITY.

* THESE STATIONS ARE NOT UNDER NWS QUALITY CONTROL. THEY ALSO MAY NOT
  REPORT WEATHER SUCH AS PRECIPITATION OR FOG.

ILZ001-002-007-009-015-016-024-222000-
NORTHWEST ILLINOIS

CITY           SKY/WX    TMP DP  RH WIND       PRES   REMARKS
MOLINE         SUNNY     59  40  49 SE13      30.28F
STERLING*      SUNNY     61  39  44 S6        30.30F
SAVANNA*       SUNNY     60  35  39 S9        30.29F
$$

ILZ003-004-008-010-011-017-018-222000-
NORTH CENTRAL ILLINOIS

CITY           SKY/WX    TMP DP  RH WIND       PRES   REMARKS
ROCKFORD       SUNNY     58  38  47 VRB6      30.31F
FREEPORT*      SUNNY     56  37  49 SE8       30.31F
ROCHELLE*      SUNNY     57  35  43 S6        30.31F
DE KALB*       SUNNY     55  37  51 SE6       30.32F
PERU*          SUNNY     58  37  44 SE7       30.30F
$$

ILZ005-006-012>014-019>023-222000-
NORTHEAST ILLINOIS

CITY           SKY/WX    TMP DP  RH WIND       PRES   REMARKS
CHICAGO-OHARE  MOSUNNY   55  38  52 E7        30.32F
CHICAGO-MIDWAY SUNNY     56  38  50 VRB7      30.33F
AURORA         SUNNY     57  37  47 VRB3      30.32F
LANSING*       SUNNY     54  34  47 NE7       30.32F
JOLIET*        SUNNY     55  38  53 E3        30.32F
WAUKEGAN       MOSUNNY   51  39  63 SE8       30.33F
DUPAGE AIRPORT SUNNY     58  38  47 CALM      30.31F
KANKAKEE*      SUNNY     56  39  52 E6        30.32F
WHEELING       SUNNY     55  39  54 SE5       30.33F
MORRIS*        SUNNY     57  39  51 SE6       30.30F
ROMEOVILLE*    SUNNY     55  38  51 SE6       30.32F
NORTHERLY ISL    N/A     49  38  65 E2          N/A
$$

LMZ740>746-222000-
SOUTHERN LAKE MICHIGAN

STATION/POSITION SKY/WX   TEMP    WIND        PRES    VSBY  WAVE
                          AIR SEA DIR/SP/G                  HT/PER
                          (F)     (DEG/KT/KT) (MB)    (MI)  (FT/S)
SOUTHERN BUOY              47 55   80/  2/  4 1028.2F         1/ 5
WAUKEGAN HARBOR            50     120/  5/  7   N/A
HARRISON CRIB              48     100/  5/  7   N/A
BURNHAM HARBOR             50      80/  6/  6   N/A
CALUMET HARBOR             49      20/  4/  6 1026.0F
MICHIGAN CITY              48     350/ 10/ 12   N/A
$$

ILZ025>027-034>036-040-047-049-050-058-095>099-222000-
WEST-CENTRAL ILLINOIS

CITY           SKY/WX    TMP DP  RH WIND       PRES   REMARKS
QUINCY         SUNNY     59  40  49 SE3       30.26F
GALESBURG*     SUNNY     58  40  51 SE7       30.28F
MACOMB*        SUNNY     59  41  51 SE8       30.30F
JACKSONVILLE*  SUNNY     61  42  49 E7        30.27F
PITTSFIELD*    SUNNY     62  42  47 SE8       30.28F
$$

ILZ028>032-037-038-041>044-048-051>054-059>061-222000-
CENTRAL ILLINOIS

CITY           SKY/WX    TMP DP  RH WIND       PRES   REMARKS
PONTIAC        SUNNY     57  36  44 SE5       30.31F
BLOOMINGTON    SUNNY     58  39  49 SE5       30.31F
DECATUR        SUNNY     58  38  47 E7        30.30F
PEORIA         SUNNY     60  40  47 SE8       30.29F
LACON*         SUNNY     58  38  46 SE8       30.29F
LINCOLN*       SUNNY     61  39  44 S7        30.28F
SPRINGFIELD    SUNNY     60  42  51 E8        30.29F
TAYLORVILLE    SUNNY     57  37  47 SE7       30.29F
$$

ILZ033-039-045-046-055>057-062-063-222000-
EAST-CENTRAL ILLINOIS

CITY           SKY/WX    TMP DP  RH WIND       PRES   REMARKS
CHAMPAIGN      SUNNY     58  38  47 NE3       30.30F
DANVILLE*        N/A     57  37  48 E7        30.27F HAZE
RANTOUL*       SUNNY     60  35  39 E6        30.30F
MATTOON        SUNNY     59  39  47 E6        30.29F
PARIS*         SUNNY     58  40  50 NE3       30.30F HAZE
$$

ILZ079-100>102-222000-
SOUTHWEST ILLINOIS

CITY           SKY/WX    TMP DP  RH WIND       PRES   REMARKS
ALTON          SUNNY     61  39  44 E12       30.28F
BELLEVILLE     SUNNY     62  44  51 VRB2      30.26F
CAHOKIA*       SUNNY     62  43  49 VRB6      30.27F
SPARTA*        SUNNY     62  43  50 E7        30.27F
$$

ILZ064>066-069>071-074>076-080>082-084>086-088>090-092>094-222000-
SOUTH-CENTRAL ILLINOIS

CITY           SKY/WX    TMP DP  RH WIND       PRES   REMARKS
CARBONDALE     SUNNY     62  41  46 SE7       30.27F
CAIRO*         SUNNY     65  41  41 NE8       30.25F
EFFINGHAM*     SUNNY     59  35  39 E5        30.29F
MARION         SUNNY     61  43  51 SE6       30.28F
MT. VERNON     SUNNY     59  43  55 E6        30.29F
CENTRALIA*     SUNNY     60  38  45 CALM      30.28F
SALEM*         SUNNY     61  42  48 NE8       30.28F
METROPOLIS*    SUNNY     62  42  48 N6        30.24F
$$

ILZ067-068-072-073-078-083-087-091-222000-
SOUTHEAST ILLINOIS

CITY           SKY/WX    TMP DP  RH WIND       PRES   REMARKS
LAWRENCEVILLE  SUNNY     60  40  47 NE6       30.29F
FLORA*         SUNNY     59  38  45 N3        30.29F
FAIRFIELD*     SUNNY     60  39  45 NE5       30.27F
HARRISBURG*    SUNNY     60  42  50 NE8       30.28F
ROBINSON*      SUNNY     62  41  45 NE6       30.30F
CARMI*         SUNNY     62  42  48 N7        30.27F
$$

ABBREVIATIONS USED IN REMARKS
   TC - TEMPERATURE IN CELSIUS
  WCI - WIND CHILL INDEX
   HX - HEAT INDEX
  VSB - VISIBILITY
$$




USA.gov is the U.S. government's official web portal to all federal, state and local government web resources and services.